Погода в Анновке

Россия / Воронежская область     50°59′17″N   40°18′24″E
темп.,
°C
ветер,
м/с
пор.,
м/с
влажн.,
%
обл.,
%
осадки,
мм/ч
давл.,
гПа
погр.,
м
17 мая, вт
вт1700:00+6зюз36827 0.1 101190
03:00+6зюз499171 0.6 1010208
06:00+6зсз4109112 0.8 1010340
09:00+11зсз711635 0.8 10091307
12:00+13зсз8115574 0.7 10082107
15:00+13зсз8125757 1.7 10081995
18:00+12зсз7116694 1.1 10081190
21:00+7зюз49835 1.2 1008154
18 мая, ср
ср1800:00+6зюз49865 0.0 1008147
03:00+4з36895 0.0 1008101
06:00+5зсз36870 0.0 1008178
09:00+11зсз45643 0.0 10091020
12:00+14зсз445398 0.2 10091936
15:00+14сз335825 0.4 10101232
18:00+13с336420 0.3 10111041
21:00+8с33899 0.4 101328
19 мая, чт
чт1900:00+7ссв489536 0.1 1014195
03:00+5с37945 0.1 1015131
06:00+6ссз25895 0.0 1016164
09:00+11с56705 0.0 1017810
12:00+14ссз565211 0.1 10171680
15:00+16ссз6848100 0.1 10152216
18:00+13зсз486849 0.0 1016367
21:00+10сз4987100 0.8 1017268
20 мая, пт
пт2000:00+7ссз33954 0.1 101849
03:00+5ссз33945 0.1 101952
06:00+6сз259162 0.0 1020160
09:00+11сз45665 0.0 1020914
12:00+15сз574599 0.0 10202338
15:00+15зсз5746100 0.0 10192134
18:00+15зсз365686 0.0 1018532
21:00+12зсз1265100 0.1 101821
21 мая, сб
сб2100:00+9ю2392100 1.1 101687
03:00+10ююз3698100 2.5 1013221
06:00+11ююз61392100 0.4 1010536
09:00+13юз6148867 0.7 1007684
12:00+17зюз101376100 0.1 10051159
15:00+17з61081100 0.8 1005975
18:00+16сз4878100 0.4 1004461
21:00+12св3596100 0.5 1004198